Weather History for PAWG - March, 2014

Change the Weather History Date:

Saturday, March 29, 2014

  Actual Average Record
Temperature  
Mean Temperature 40 °F -  
Max Temperature 46 °F 45 °F 55 °F (1983)
Min Temperature 33 °F 33 °F 23 °F (1965)
Degree Days  
Heating Degree Days 26    
Moisture  
Dew Point 23 °F    
Average Humidity 50    
Maximum Humidity 65    
Minimum Humidity 37    
Precipitation  
Precipitation 0.00 in - - ()
Sea Level Pressure  
Sea Level Pressure 29.65 in    
Wind  
Wind Speed 6 mph (East)    
Max Wind Speed 13 mph    
Max Gust Speed -    
Visibility 10 miles    
Events      
Averages and records for this station are not official NWS values.
T = Trace of Precipitation, MM = Missing Value Source: NWS Daily Summary

Daily Weather History Graph

Daily Weather History Graph

Search for Another Location

Airport or City:

Trip Planner

Search our weather history database for the weather conditions in past years. The results will help you decide how hot, cold, wet, or windy it might be!

Date:

Astronomy

Mar. 29, 2014 Rise Set
Actual Time 6:26 AM AKDT 7:22 PM AKDT
Civil Twilight 5:48 AM AKDT 8:00 PM AKDT
Nautical Twilight 5:02 AM AKDT 8:47 PM AKDT
Astronomical Twilight 4:11 AM AKDT 9:39 PM AKDT
Moon 5:51 AM AKDT 6:30 PM AKDT
Length of Visible Light 14h 12m
Length of Day
12h 55m
Waning Crescent, 1% of the Moon is Illuminated
Mar 29
Waning Crescent
Mar 30
New
Apr 7
First Quarter
Apr 14
Full
Apr 21
Last Quarter

Hourly Weather History & Observations

Time (AKDT) Temp. Windchill Dew Point Humidity Pressure Visibility Wind Dir Wind Speed Gust Speed Precip Events Conditions
12:16 AM 35.6 °F 29.2 °F 24.8 °F 65% 29.59 in 10.0 mi SSE 8.1 mph - N/A   Clear
12:36 AM 35.6 °F 29.9 °F 17.6 °F 48% 29.60 in 10.0 mi SE 6.9 mph - N/A   Clear
12:56 AM 37.4 °F 32.8 °F 17.6 °F 45% 29.59 in 10.0 mi SE 5.8 mph - N/A   Clear
1:16 AM 37.4 °F 32.1 °F 17.6 °F 45% 29.60 in 10.0 mi ESE 6.9 mph - N/A   Clear
1:36 AM 37.4 °F 30.8 °F 17.6 °F 45% 29.60 in 10.0 mi SE 9.2 mph - N/A   Clear
1:56 AM 37.4 °F 30.3 °F 17.6 °F 45% 29.60 in 10.0 mi ESE 10.4 mph - N/A   Clear
2:16 AM 39.2 °F 32.5 °F 19.4 °F 45% 29.60 in 10.0 mi ESE 10.4 mph - N/A   Clear
2:36 AM 37.4 °F 31.4 °F 19.4 °F 48% 29.61 in 10.0 mi SE 8.1 mph - N/A   Clear
2:56 AM 39.2 °F 32.5 °F 21.2 °F 49% 29.60 in 10.0 mi ESE 10.4 mph - N/A   Clear
3:16 AM 37.4 °F 30.3 °F 21.2 °F 52% 29.60 in 10.0 mi ESE 10.4 mph - N/A   Clear
3:36 AM 37.4 °F 32.1 °F 21.2 °F 52% 29.61 in 10.0 mi ESE 6.9 mph - N/A   Clear
3:56 AM 35.6 °F 30.7 °F 23.0 °F 60% 29.61 in 10.0 mi SE 5.8 mph - N/A   Clear
4:16 AM 35.6 °F 29.9 °F 19.4 °F 52% 29.61 in 10.0 mi SSE 6.9 mph - N/A   Clear
4:36 AM 35.6 °F 28.0 °F 19.4 °F 52% 29.62 in 10.0 mi SE 10.4 mph - N/A   Clear
4:56 AM 35.6 °F 29.2 °F 21.2 °F 56% 29.62 in 10.0 mi SE 8.1 mph - N/A   Clear
5:16 AM 33.8 °F 30.8 °F 21.2 °F 60% 29.62 in 10.0 mi South 3.5 mph - N/A   Clear
5:36 AM 33.8 °F 30.8 °F 21.2 °F 60% 29.63 in 10.0 mi ESE 3.5 mph - N/A   Clear
5:56 AM 35.6 °F 32.8 °F 23.0 °F 60% 29.63 in 10.0 mi ESE 3.5 mph - N/A   Partly Cloudy
6:16 AM 33.8 °F - 21.2 °F 60% 29.63 in 10.0 mi Calm Calm - N/A   Partly Cloudy
6:36 AM 35.6 °F 32.8 °F 23.0 °F 60% 29.63 in 10.0 mi East 3.5 mph - N/A   Partly Cloudy
6:56 AM 33.8 °F - 21.2 °F 60% 29.63 in 10.0 mi Calm Calm - N/A   Scattered Clouds
7:16 AM 33.8 °F - 21.2 °F 60% 29.63 in 10.0 mi Calm Calm - N/A   Scattered Clouds
7:36 AM 35.6 °F - 21.2 °F 56% 29.64 in 10.0 mi Calm Calm - N/A   Scattered Clouds
7:56 AM 35.6 °F - 23.0 °F 60% 29.64 in 10.0 mi Calm Calm - N/A   Mostly Cloudy
8:16 AM 37.4 °F 34.9 °F 24.8 °F 60% 29.64 in 10.0 mi East 3.5 mph - N/A   Mostly Cloudy
8:36 AM 37.4 °F - 23.0 °F 56% 29.64 in 10.0 mi Calm Calm - N/A   Mostly Cloudy
8:56 AM 37.4 °F 33.8 °F 23.0 °F 56% 29.65 in 10.0 mi North 4.6 mph - N/A   Scattered Clouds
9:16 AM 37.4 °F 34.9 °F 21.2 °F 52% 29.65 in 10.0 mi NNW 3.5 mph - N/A   Scattered Clouds
9:36 AM 39.2 °F - 21.2 °F 49% 29.65 in 10.0 mi Calm Calm - N/A   Scattered Clouds
9:56 AM 39.2 °F 35.9 °F 21.2 °F 49% 29.65 in 10.0 mi NNW 4.6 mph - N/A   Scattered Clouds
10:16 AM 39.2 °F 37.0 °F 21.2 °F 49% 29.66 in 10.0 mi North 3.5 mph - N/A   Scattered Clouds
10:36 AM 41.0 °F 39.0 °F 23.0 °F 49% 29.66 in 10.0 mi North 3.5 mph - N/A   Scattered Clouds
10:56 AM 41.0 °F - 21.2 °F 45% 29.66 in 10.0 mi Calm Calm - N/A   Scattered Clouds
11:16 AM 41.0 °F 39.0 °F 21.2 °F 45% 29.66 in 10.0 mi North 3.5 mph - N/A   Scattered Clouds
11:36 AM 42.8 °F 41.1 °F 21.2 °F 42% 29.66 in 10.0 mi North 3.5 mph - N/A   Scattered Clouds
11:56 AM 42.8 °F 40.1 °F 21.2 °F 42% 29.67 in 10.0 mi North 4.6 mph - N/A   Scattered Clouds
12:16 PM 42.8 °F 41.1 °F 24.8 °F 49% 29.67 in 10.0 mi North 3.5 mph - N/A   Scattered Clouds
12:36 PM 42.8 °F 41.1 °F 24.8 °F 49% 29.67 in 10.0 mi North 3.5 mph - N/A   Scattered Clouds
12:56 PM 42.8 °F 41.1 °F 23.0 °F 46% 29.67 in 10.0 mi North 3.5 mph - N/A   Scattered Clouds
1:16 PM 44.6 °F - 21.2 °F 39% 29.67 in 10.0 mi Calm Calm - N/A   Scattered Clouds
1:36 PM 46.4 °F 44.3 °F 21.2 °F 37% 29.67 in 10.0 mi NNE 4.6 mph - N/A   Scattered Clouds
1:56 PM 46.4 °F 45.2 °F 21.2 °F 37% 29.67 in 10.0 mi North 3.5 mph - N/A   Mostly Cloudy
2:16 PM 46.4 °F 45.2 °F 21.2 °F 37% 29.67 in 10.0 mi North 3.5 mph - N/A   Mostly Cloudy
2:36 PM 46.4 °F 44.3 °F 23.0 °F 40% 29.67 in 10.0 mi NNW 4.6 mph - N/A   Mostly Cloudy
2:56 PM 46.4 °F 44.3 °F 23.0 °F 40% 29.67 in 10.0 mi North 4.6 mph - N/A   Overcast
3:16 PM 46.4 °F 44.3 °F 24.8 °F 43% 29.66 in 10.0 mi North 4.6 mph - N/A   Overcast
3:36 PM 46.4 °F 45.2 °F 24.8 °F 43% 29.66 in 10.0 mi North 3.5 mph - N/A   Overcast
3:56 PM 46.4 °F - 24.8 °F 43% 29.66 in 10.0 mi Calm Calm - N/A   Overcast
4:16 PM 46.4 °F - 24.8 °F 43% 29.66 in 10.0 mi Calm Calm - N/A   Overcast
4:36 PM 46.4 °F - 23.0 °F 40% 29.66 in 10.0 mi Calm Calm - N/A   Overcast
4:56 PM 46.4 °F - 24.8 °F 43% 29.66 in 10.0 mi Calm Calm - N/A   Overcast
5:16 PM 46.4 °F 44.3 °F 24.8 °F 43% 29.65 in 10.0 mi NW 4.6 mph - N/A   Scattered Clouds
5:36 PM 46.4 °F 44.3 °F 23.0 °F 40% 29.65 in 10.0 mi West 4.6 mph - N/A   Scattered Clouds
5:56 PM 46.4 °F - 24.8 °F 43% 29.66 in 10.0 mi Calm Calm - N/A   Scattered Clouds
6:16 PM 46.4 °F 43.5 °F 24.8 °F 43% 29.65 in 10.0 mi East 5.8 mph - N/A   Scattered Clouds
6:36 PM 44.6 °F 40.2 °F 24.8 °F 46% 29.66 in 10.0 mi East 8.1 mph - N/A   Scattered Clouds
6:56 PM 44.6 °F 41.4 °F 24.8 °F 46% 29.66 in 10.0 mi ESE 5.8 mph - N/A   Unknown
7:16 PM 42.8 °F 39.3 °F 24.8 °F 49% 29.67 in 10.0 mi SE 5.8 mph - N/A   Unknown
7:36 PM 42.8 °F 37.5 °F 23.0 °F 46% 29.67 in 10.0 mi East 9.2 mph - N/A   Unknown
7:56 PM 42.8 °F 37.5 °F 24.8 °F 49% 29.67 in 10.0 mi SE 9.2 mph - N/A   Scattered Clouds
8:16 PM 42.8 °F 37.0 °F 24.8 °F 49% 29.67 in 10.0 mi East 10.4 mph - N/A   Scattered Clouds
8:36 PM 42.8 °F 36.2 °F 24.8 °F 49% 29.67 in 10.0 mi ESE 12.7 mph - N/A   Scattered Clouds
8:56 PM 42.8 °F 36.6 °F 24.8 °F 49% 29.68 in 10.0 mi ESE 11.5 mph - N/A   Partly Cloudy
9:16 PM 41.0 °F 34.7 °F 21.2 °F 45% 29.68 in 10.0 mi SE 10.4 mph - N/A   Partly Cloudy
9:36 PM 41.0 °F 35.2 °F 23.0 °F 49% 29.69 in 10.0 mi ESE 9.2 mph - N/A   Partly Cloudy
9:56 PM 39.2 °F 33.0 °F 24.8 °F 56% 29.69 in 10.0 mi SE 9.2 mph - N/A   Scattered Clouds
10:16 PM 37.4 °F 31.4 °F 26.6 °F 65% 29.69 in 10.0 mi ESE 8.1 mph - N/A   Scattered Clouds
10:36 PM 37.4 °F 29.8 °F 26.6 °F 65% 29.70 in 10.0 mi ESE 11.5 mph - N/A   Scattered Clouds
10:56 PM 37.4 °F 30.3 °F 26.6 °F 65% 29.70 in 10.0 mi SE 10.4 mph - N/A   Scattered Clouds
11:16 PM 37.4 °F 30.8 °F 26.6 °F 65% 29.70 in 10.0 mi SE 9.2 mph - N/A   Scattered Clouds
11:36 PM 37.4 °F 30.8 °F 26.6 °F 65% 29.71 in 10.0 mi SE 9.2 mph - N/A   Clear
11:56 PM 37.4 °F 31.4 °F 26.6 °F 65% 29.71 in 10.0 mi SSE 8.1 mph - N/A   Clear